When you browse on this site, cookies collect data to enhance your experience and personalize the content and advertising you see.
Visit our Privacy Policy to learn more. By continuing to use the site, you agree to this use of cookies and data.
  • In Czech Republic
  • List of Countries
  • For 7 days
  • Water Temperature
  • Weather Map
  • Weather Widgets
  • user-avatar
    Login

    Hourly Weather Saarbrucken

    Today, 20 October, Sunday

    Time Temperature Precipitation Wind Pressure Humidity
    00:00 +12°C° 1.3 mm 3 mps 734 mmHg 97%
    01:00 +12°C° 1.3 mm 3 mps 733 mmHg 97%
    02:00 +12°C° 1.3 mm 3 mps 733 mmHg 96%
    03:00 +12°C° 1.3 mm 3 mps 733 mmHg 95%
    04:00 +13°C° 0.1 mm 2 mps 733 mmHg 95%
    05:00 +13°C° 0.1 mm 2 mps 733 mmHg 94%
    06:00 +13°C° 0.1 mm 2 mps 733 mmHg 94%
    07:00 +14°C° 0.2 mm 2 mps 733 mmHg 93%
    08:00 +14°C° 0.2 mm 2 mps 733 mmHg 92%
    09:00 +15°C° 0.2 mm 2 mps 733 mmHg 90%
    10:00 +16°C° 0 mm 2 mps 733 mmHg 86%
    11:00 +17°C° 0 mm 2 mps 733 mmHg 81%
    12:00 +19°C° 0 mm 1 mps 733 mmHg 77%
    13:00 +19°C° 0 mm 1 mps 733 mmHg 79%
    14:00 +19°C° 0 mm 1 mps 733 mmHg 81%
    15:00 +18°C° 0 mm 1 mps 733 mmHg 82%
    16:00 +17°C° 0.2 mm 2 mps 733 mmHg 86%
    17:00 +16°C° 0.2 mm 2 mps 733 mmHg 89%
    18:00 +15°C° 0.2 mm 2 mps 733 mmHg 92%
    19:00 +15°C° 0.3 mm 2 mps 734 mmHg 92%
    20:00 +15°C° 0.3 mm 2 mps 734 mmHg 93%
    21:00 +15°C° 0.3 mm 2 mps 735 mmHg 93%
    22:00 +14°C° 0 mm 2 mps 735 mmHg 93%
    23:00 +14°C° 0 mm 2 mps 735 mmHg 93%

    Tomorrow, 21 October, Monday

    Time Temperature Precipitation Wind Pressure Humidity
    00:00 +14°C° 0 mm 2 mps 735 mmHg 94%
    01:00 +14°C° 0.1 mm 2 mps 735 mmHg 94%
    02:00 +13°C° 0.1 mm 3 mps 736 mmHg 95%
    03:00 +13°C° 0.1 mm 3 mps 736 mmHg 96%
    04:00 +13°C° 0.5 mm 3 mps 737 mmHg 94%
    05:00 +13°C° 0.5 mm 3 mps 738 mmHg 92%
    06:00 +12°C° 0.5 mm 3 mps 739 mmHg 90%
    07:00 +12°C° 0.1 mm 3 mps 739 mmHg 90%
    08:00 +13°C° 0.1 mm 2 mps 740 mmHg 90%
    09:00 +13°C° 0.1 mm 2 mps 740 mmHg 90%
    10:00 +14°C° 0 mm 2 mps 741 mmHg 87%
    11:00 +13°C° 0 mm 3 mps 741 mmHg 83%
    12:00 +13°C° 0 mm 3 mps 742 mmHg 80%
    13:00 +13°C° 0 mm 3 mps 742 mmHg 81%
    14:00 +13°C° 0 mm 3 mps 742 mmHg 82%
    15:00 +13°C° 0 mm 3 mps 742 mmHg 83%
    16:00 +12°C° 0.1 mm 3 mps 742 mmHg 84%
    17:00 +12°C° 0.1 mm 3 mps 743 mmHg 86%
    18:00 +11°C° 0.1 mm 3 mps 743 mmHg 87%
    19:00 +12°C° 0.1 mm 2 mps 744 mmHg 89%
    20:00 +10°C° 0.1 mm 2 mps 744 mmHg 91%
    21:00 +10°C° 0.1 mm 2 mps 744 mmHg 92%
    22:00 +10°C° 0 mm 2 mps 745 mmHg 92%
    23:00 +10°C° 0 mm 2 mps 745 mmHg 92%

    Day after tomorrow, 22 October, Tuesday

    Time Temperature Precipitation Wind Pressure Humidity
    00:00 +10°C° 0 mm 2 mps 745 mmHg 92%
    01:00 +10°C° 0 mm 2 mps 745 mmHg 93%
    02:00 +11°C° 0 mm 1 mps 745 mmHg 93%
    03:00 +10°C° 0 mm 1 mps 745 mmHg 94%
    04:00 +10°C° 0 mm 1 mps 745 mmHg 94%
    05:00 +10°C° 0 mm 1 mps 745 mmHg 93%
    06:00 +9°C° 0 mm 0 mps 746 mmHg 93%
    07:00 +10°C° 0 mm 0 mps 746 mmHg 90%
    08:00 +11°C° 0 mm 0 mps 746 mmHg 87%
    09:00 +11°C° 0 mm 0 mps 746 mmHg 84%
    10:00 +13°C° 0 mm 1 mps 746 mmHg 79%
    11:00 +14°C° 0 mm 1 mps 746 mmHg 75%
    12:00 +15°C° 0 mm 1 mps 746 mmHg 70%
    13:00 +15°C° 0 mm 1 mps 746 mmHg 70%
    14:00 +15°C° 0 mm 1 mps 745 mmHg 70%
    15:00 +15°C° 0 mm 1 mps 745 mmHg 70%
    16:00 +14°C° 0 mm 2 mps 745 mmHg 75%
    17:00 +12°C° 0 mm 2 mps 744 mmHg 81%
    18:00 +10°C° 0 mm 2 mps 744 mmHg 86%
    19:00 +10°C° 0 mm 2 mps 744 mmHg 86%
    20:00 +10°C° 0 mm 2 mps 744 mmHg 86%
    21:00 +10°C° 0 mm 2 mps 744 mmHg 86%
    22:00 +9°C° 0 mm 2 mps 744 mmHg 86%
    23:00 +9°C° 0 mm 3 mps 743 mmHg 87%

    23 October, Wednesday

    Time Temperature Precipitation Wind Pressure Humidity
    00:00 +9°C° 0 mm 3 mps 743 mmHg 87%
    01:00 +9°C° 0 mm 3 mps 743 mmHg 88%
    02:00 +9°C° 0 mm 3 mps 742 mmHg 88%
    03:00 +9°C° 0 mm 3 mps 742 mmHg 89%
    04:00 +9°C° 0 mm 3 mps 742 mmHg 89%
    05:00 +8°C° 0 mm 4 mps 741 mmHg 90%
    06:00 +8°C° 0 mm 4 mps 741 mmHg 91%
    07:00 +10°C° 0 mm 4 mps 741 mmHg 87%
    08:00 +11°C° 0 mm 4 mps 741 mmHg 83%
    09:00 +12°C° 0 mm 4 mps 740 mmHg 79%
    10:00 +14°C° 0 mm 4 mps 740 mmHg 77%
    11:00 +15°C° 0 mm 4 mps 740 mmHg 74%
    12:00 +17°C° 0 mm 5 mps 739 mmHg 72%
    13:00 +17°C° 0 mm 4 mps 739 mmHg 74%
    14:00 +17°C° 0 mm 4 mps 738 mmHg 75%
    15:00 +17°C° 0 mm 4 mps 738 mmHg 77%
    16:00 +15°C° 0 mm 4 mps 737 mmHg 82%
    17:00 +14°C° 0 mm 4 mps 737 mmHg 87%
    18:00 +13°C° 0 mm 4 mps 736 mmHg 92%
    19:00 +12°C° 0 mm 4 mps 736 mmHg 92%
    20:00 +12°C° 0 mm 4 mps 736 mmHg 93%
    21:00 +12°C° 0 mm 3 mps 736 mmHg 94%
    22:00 +12°C° 0 mm 3 mps 736 mmHg 95%
    23:00 +11°C° 0 mm 3 mps 736 mmHg 95%

    24 October, Thursday

    Time Temperature Precipitation Wind Pressure Humidity
    00:00 +12°C° 0 mm 2 mps 736 mmHg 95%
    01:00 +12°C° 0 mm 2 mps 736 mmHg 96%
    02:00 +12°C° 0 mm 2 mps 736 mmHg 96%
    03:00 +12°C° 0 mm 1 mps 736 mmHg 96%
    04:00 +11°C° 0 mm 1 mps 736 mmHg 96%
    05:00 +11°C° 0 mm 1 mps 736 mmHg 96%
    06:00 +11°C° 0 mm 1 mps 736 mmHg 96%
    07:00 +12°C° 0 mm 1 mps 736 mmHg 93%
    08:00 +14°C° 0 mm 1 mps 736 mmHg 89%
    09:00 +15°C° 0 mm 1 mps 737 mmHg 86%
    10:00 +16°C° 0 mm 1 mps 737 mmHg 81%
    11:00 +18°C° 0 mm 1 mps 737 mmHg 77%
    12:00 +19°C° 0 mm 2 mps 737 mmHg 72%
    13:00 +20°C° 0 mm 1 mps 736 mmHg 74%
    14:00 +20°C° 0 mm 1 mps 736 mmHg 75%
    15:00 +20°C° 0 mm 1 mps 736 mmHg 77%
    16:00 +18°C° 0 mm 1 mps 736 mmHg 81%
    17:00 +16°C° 0 mm 1 mps 736 mmHg 86%
    18:00 +13°C° 0 mm 0 mps 736 mmHg 90%
    19:00 +14°C° 0 mm 1 mps 737 mmHg 91%
    20:00 +14°C° 0 mm 1 mps 738 mmHg 92%
    21:00 +14°C° 0 mm 2 mps 738 mmHg 93%
    22:00 +13°C° 0 mm 1 mps 739 mmHg 94%
    23:00 +13°C° 0 mm 1 mps 739 mmHg 94%

    25 October, Friday

    Time Temperature Precipitation Wind Pressure Humidity
    00:00 +13°C° 0 mm 1 mps 739 mmHg 95%
    01:00 +13°C° 0 mm 1 mps 739 mmHg 96%
    02:00 +12°C° 0 mm 1 mps 739 mmHg 96%
    03:00 +12°C° 0 mm 1 mps 740 mmHg 97%
    04:00 +12°C° 0 mm 1 mps 740 mmHg 97%
    05:00 +11°C° 0 mm 1 mps 740 mmHg 97%
    06:00 +10°C° 0 mm 0 mps 740 mmHg 97%
    07:00 +12°C° 0 mm 0 mps 741 mmHg 92%
    08:00 +13°C° 0 mm 0 mps 741 mmHg 87%
    09:00 +15°C° 0 mm 0 mps 741 mmHg 82%
    10:00 +16°C° 0 mm 0 mps 741 mmHg 77%
    11:00 +19°C° 0 mm 1 mps 741 mmHg 71%
    12:00 +20°C° 0 mm 1 mps 741 mmHg 65%
    13:00 +20°C° 0 mm 1 mps 741 mmHg 68%
    14:00 +19°C° 0 mm 1 mps 741 mmHg 70%
    15:00 +19°C° 0 mm 1 mps 741 mmHg 72%
    16:00 +17°C° 0 mm 2 mps 741 mmHg 79%
    17:00 +15°C° 0 mm 2 mps 741 mmHg 85%
    18:00 +13°C° 0 mm 2 mps 741 mmHg 92%
    19:00 +13°C° 0 mm 2 mps 741 mmHg 93%
    20:00 +13°C° 0 mm 2 mps 742 mmHg 94%
    21:00 +12°C° 0 mm 2 mps 742 mmHg 95%
    22:00 +12°C° 0 mm 2 mps 742 mmHg 95%
    23:00 +12°C° 0 mm 2 mps 741 mmHg 95%
    Show more